{"data":{"norad_id":55508,"intl_designator":"2023-017A","name":"AMAZONAS NEXUS","alt_names":[],"object_type":"PAYLOAD","status":"ACTIVE","operator":null,"country":"SPN","launch_date":"2023-02-07","launch_site_code":"AFETR","launch_vehicle":null,"mission":null,"orbit_class":"UNKNOWN","rcs_meters":null,"size_class":null,"mass_kg":null,"dimensions":null,"purposes":["comms"],"wikipedia_slug":null,"has_3d_model":false,"image_url":null,"decayed_at":null,"tle_current":{"epoch":"2026-09-19T06:25:05.972736Z","epoch_age_seconds":124792,"freshness":"FRESH","line1":"1 55508U 23017A   26262.26743024 -.00000287  00000+0  00000+0 0  9998","line2":"2 55508   0.0438  27.7540 0002803 104.0392 261.6756  1.00271049  7988","mean_motion":1.00271049,"eccentricity":0.0002803,"inclination_deg":0.0438,"raan_deg":27.754,"arg_perigee_deg":104.0392,"mean_anomaly_deg":261.6756,"bstar":0,"rev_number":798,"period_min":1436.107445131,"perigee_km":35774.982457768,"apogee_km":35798.620122173,"semimajor_km":42164.93828997,"source":"CELESTRAK","updated_at":"2026-09-20T09:00:35.330190Z"}}}